Meteo Giornale » Osservazioni meteo Indonesia » Bali Intl
ore: 14:00 - Osservazioni Meteo Bali Intl
Lat. 8° 44' S Lon. 115° 10' E Alt. 216 metri s.l.m.
29 °C
Poco Nuvoloso
Temp. 24 Ore
24 °C
30 °C
Est/Sud-Est
27.8 Km/h
Dew point 23 °C
Umidità 70 %
Visibilità 10 Km
Il sole sorge alle ore 06:21
Il sole tramonta alle ore 18:17
| Data e Ora | Cielo e Fenomeni | T °C | DP °C | Um. % | Pres. hPa | Vis. km | Vento km/h | |
|---|---|---|---|---|---|---|---|---|
| Oggi h: 14:00 | Poco Nuvoloso | 29 | 23 | 70 | 1013 | 10 | E/SE 27.8 | |
| Oggi h: 13:30 | Poco Nuvoloso | 30 | 22 | 62 | 1014 | 10 | E 27.8 | |
| Oggi h: 13:00 | Poco Nuvoloso | 30 | 22 | 62 | 1014 | 10 | SE 29.6 | |
| Oggi h: 12:30 | Poco Nuvoloso | 30 | 21 | 58 | 1014 | 10 | SE 31.5 | |
| Oggi h: 12:00 | Poco Nuvoloso | 30 | 22 | 62 | 1015 | 10 | E/SE 25.9 | |
| Oggi h: 11:30 | Poco Nuvoloso | 30 | 23 | 66 | 1015 | 10 | E/SE 25.9 | |
| Oggi h: 11:00 | Poco Nuvoloso | 30 | 23 | 66 | 1016 | 10 | E/SE 24 | |
| Oggi h: 10:30 | Poco Nuvoloso | 29 | 24 | 74 | 1016 | 10 | E/SE 25.9 | |
| Oggi h: 10:00 | Nuvoloso | 30 | 24 | 70 | 1017 | 10 | E 20.3 | |
| Oggi h: 09:30 | Molto Nuvoloso | 28 | 24 | 78 | 1017 | 10 | E/SE 16.7 | |
| Oggi h: 09:00 | Molto Nuvoloso | 29 | 24 | 74 | 1017 | 10 | E 16.7 | |
| Oggi h: 08:30 | Molto Nuvoloso | 27 | 24 | 83 | 1016 | 10 | E 18.5 | |
| Oggi h: 08:00 | Molto Nuvoloso | 27 | 24 | 83 | 1016 | 10 | E 18.5 | |
| Oggi h: 07:30 | Nuvoloso | 26 | 24 | 88 | 1016 | 10 | E 14.8 | |
| Oggi h: 07:00 | Poco Nuvoloso | 25 | 23 | 88 | 1015 | 10 | E 13 | |
| Oggi h: 06:30 | Poco Nuvoloso | 25 | 23 | 88 | 1015 | 10 | E/SE 14.8 | |
| Oggi h: 06:00 | Poco Nuvoloso | 25 | 23 | 88 | 1015 | 10 | E 13 | |
| Oggi h: 05:30 | Nuvoloso | 25 | 24 | 94 | 1015 | 10 | E/SE 14.8 | |
| Oggi h: 05:00 | Nuvoloso | 24 | 24 | 100 | 1014 | 10 | E 11.1 | |
| Oggi h: 04:30 | Nuvoloso | 24 | 24 | 100 | 1014 | 10 | E 13 | |
| Oggi h: 04:00 | Nuvoloso | 24 | 23 | 94 | 1014 | 10 | E 13 | |
| Oggi h: 03:30 | Nuvoloso | 25 | 24 | 94 | 1014 | 10 | E/SE 11.1 | |
| Oggi h: 03:00 | Nuvoloso | 25 | 24 | 94 | 1015 | 10 | E 13 | |
| Oggi h: 02:30 | Nuvoloso | 25 | 24 | 94 | 1014 | 10 | E/SE 13 | |
| Oggi h: 02:00 | Nuvoloso | 25 | 24 | 94 | 1014 | 10 | E/SE 13 | |
| Oggi h: 01:30 | Poco Nuvoloso | 25 | 24 | 94 | 1015 | 10 | E/SE 13 | |
| Oggi h: 01:00 | Poco Nuvoloso | 25 | 24 | 94 | 1015 | 10 | E 16.7 | |
| Oggi h: 00:30 | Poco Nuvoloso | 25 | 24 | 94 | 1015 | 10 | E 18.5 | |
| Oggi h: 00:00 | Poco Nuvoloso | 25 | 24 | 94 | 1016 | 10 | E 14.8 | |
| Ieri h: 23:30 | Poco Nuvoloso | 25 | 24 | 94 | 1016 | 10 | E 13 | |
| Ieri h: 23:00 | Poco Nuvoloso | 25 | 24 | 94 | 1016 | 10 | E 11.1 | |
| Ieri h: 22:30 | Poco Nuvoloso | 25 | 24 | 94 | 1016 | 10 | E 11.1 | |
| Ieri h: 22:00 | Poco Nuvoloso | 25 | 24 | 94 | 1016 | 10 | E 11.1 | |
| Ieri h: 21:30 | Poco Nuvoloso | 26 | 24 | 88 | 1016 | 10 | E 14.8 | |
| Ieri h: 21:00 | Poco Nuvoloso | 25 | 24 | 94 | 1016 | 10 | E 13 | |
| Ieri h: 20:30 | Poco Nuvoloso | 26 | 24 | 88 | 1016 | 10 | E/SE 11.1 | |
| Ieri h: 20:00 | Poco Nuvoloso | 26 | 24 | 88 | 1015 | 10 | E/SE 16.7 | |
| Ieri h: 19:30 | Poco Nuvoloso | 26 | 24 | 88 | 1015 | 10 | E/SE 20.3 | |
| Ieri h: 19:00 | Poco Nuvoloso | 26 | 24 | 88 | 1014 | 10 | E/SE 20.3 | |
| Ieri h: 18:30 | Poco Nuvoloso | 26 | 24 | 88 | 1014 | 10 | E/SE 24 | |
| Ieri h: 18:00 | Poco Nuvoloso | 27 | 24 | 83 | 1014 | 10 | SE 29.6 | |
| Ieri h: 17:30 | Poco Nuvoloso | 27 | 24 | 83 | 1014 | 10 | E/SE 29.6 | |
| Ieri h: 17:00 | Poco Nuvoloso | 28 | 24 | 78 | 1014 | 10 | SE 31.5 | |
| Ieri h: 16:30 | Poco Nuvoloso | 28 | 24 | 78 | 1013 | 10 | SE 31.5 | |
| Ieri h: 16:00 | Poco Nuvoloso | 29 | 24 | 74 | 1013 | 10 | SE 31.5 | |
| Ieri h: 15:30 | Poco Nuvoloso | 29 | 24 | 74 | 1013 | 10 | SE 29.6 | |
| Ieri h: 15:00 | Poco Nuvoloso | 29 | 24 | 74 | 1013 | 10 | SE 29.6 | |



